Location: Unspecified
(50.7693°N, 0.0000°E)
Time: 16:13:15
(UTC+00:00)

Transit 2A - Pass Details

Date: 28 June 2019
Orbit: 594 x 964 km, 66.7° (Epoch: 19 July)

Event Time Altitude Azimuth Distance (km) Brightness Sun altitude
Rises 02:12:09 0° 279° (W) 3,639 9.3 -10.7°
Reaches altitude 10° 02:15:30 10° 296° (WNW) 2,667 8.8 -10.4°
Maximum altitude 02:20:01 20° 342° (NNW) 1,970 8.7 -10.0°
Drops below altitude 10° 02:24:21 10° 29° (NNE) 2,536 10.4 -9.7°
Sets 02:27:27 0° 46° (NE) 3,408 11.2 -9.4°
